Home   Weather   Lage   Past weeks

Flag for Germany Past Weather in Lage, North Rhine-Westphalia, Germany — Yesterday and Last 2 Weeks

Now
63 °F

Passing clouds.


Feels Like: 63 °F
Forecast: 53 / 68 °F
Wind: 12 mph from South

Location: Bueckeburg

Current Time: Oct 17, 2017 at 4:20:41 am

Latest Report: Oct 17, 2017 at 3:20 am


Visibility: N/A

Pressure: 30.12 "Hg

Humidity: 68%

Dew Point: 52 °F

Location of LageLocation

Past Weather in Lage — Graph

°F

Lage Temperature Yesterday

Maximum temperature yesterday: 73 °F (at 3:20 pm)
Minimum temperature yesterday: 57 °F (at 6:20 am)
Average temperature yesterday: 65 °F

High & Low Weather Summary for the Past Weeks

 TemperatureHumidityPressure
High73 °F (Oct 16, 3:20 pm)100% (Oct 8, 8:20 am)30.30 "Hg (Oct 8, 8:20 am)
Low45 °F (Oct 8, 10:20 pm)55% (Oct 12, 2:20 pm)29.45 "Hg (Oct 5, 12:20 pm)
Average56 °F80%30.00 "Hg
* Reported Oct 2 2:20 am — Oct 17 2:20 am, Lage. Weather by CustomWeather, © 2017

Note: Actual official high and low records may vary slightly from our data, if they occured in-between our weather recording intervals... More about our weather records

Advertising

Lage Weather History for the Previous 24 Hours

Scroll right to see more
 ConditionsComfort  
Time TempWeatherWind HumidityBarometerVisibility
2:20 am
Tue, Oct 17
63 °FPassing clouds.12 mph68%30.12 "HgN/A
1:20 am63 °FPassing clouds.12 mph68%30.12 "HgN/A
12:20 am64 °FPassing clouds.15 mph68%30.12 "HgN/A
11:20 pm
Mon, Oct 16
66 °FMild.18 mph64%30.12 "HgN/A
10:20 pm66 °FMild.17 mph64%30.12 "HgN/A
9:20 pm68 °FPassing clouds.15 mph64%30.12 "HgN/A
8:20 pm68 °FPassing clouds.14 mph69%30.12 "HgN/A
7:20 pm68 °FPassing clouds.12 mph69%30.12 "HgN/A
6:20 pm70 °FPassing clouds.15 mph64%30.12 "HgN/A
5:20 pm72 °FPassing clouds.6 mph65%30.15 "HgN/A
4:20 pm73 °FPassing clouds.6 mph61%30.15 "HgN/A
3:20 pm73 °FPassing clouds.9 mph61%30.15 "HgN/A
2:20 pm72 °FPassing clouds.10 mph65%30.18 "HgN/A
1:20 pm70 °FPassing clouds.10 mph64%30.18 "HgN/A
12:20 pm68 °FPassing clouds.14 mph64%30.18 "HgN/A
11:20 am64 °FPassing clouds.16 mph68%30.18 "HgN/A
10:20 am63 °FPassing clouds.14 mph73%30.15 "HgN/A
9:20 am61 °FPassing clouds.9 mph77%30.15 "HgN/A
8:20 am59 °FPassing clouds.10 mph77%30.15 "HgN/A
7:20 am59 °FCool.8 mph77%30.15 "HgN/A
6:20 am57 °FCool.6 mph82%30.15 "HgN/A
5:20 am61 °FCool.6 mph72%30.15 "HgN/A
4:20 am59 °FPassing clouds.7 mph72%30.15 "HgN/A
Weather by CustomWeather, © 2017

See weather overview